Nagpur Sonegaon, India

9:23 AM IST on February 12, 2016 (GMT +0530)
Nagpur

Weather History for VANP - May, 2013

Change the Weather History Date:

Saturday, May 18, 2013

  Actual Average Record
Temperature  
Mean Temperature 98 °F -  
Max Temperature 116 °F 103 °F - ()
Min Temperature 81 °F 80 °F - ()
Cooling Degree Days 34    
Growing Degree Days 48 (Base 50)    
Moisture  
Dew Point 50 °F    
Average Humidity 18    
Maximum Humidity 37    
Minimum Humidity 8    
Precipitation  
Precipitation 0.00 in 0.14 in - ()
Sea Level Pressure  
Sea Level Pressure 29.61 in    
Wind  
Wind Speed 4 mph ()    
Max Wind Speed 10 mph    
Max Gust Speed -    
Visibility 3.3 miles    
Events      
T = Trace of Precipitation, MM = Missing Value Source: Averaged Metar Reports

Daily Weather History Graph

Daily Weather History Graph

Search for Another Location

Airport or City:

Trip Planner

Search our weather history database for the weather conditions in past years. The results will help you decide how hot, cold, wet, or windy it might be!

Date:

Astronomy

May. 18, 2013 Rise Set
Actual Time 5:34 AM IST 6:45 PM IST
Civil Twilight 5:10 AM IST 7:09 PM IST
Nautical Twilight 4:42 AM IST 7:38 PM IST
Astronomical Twilight 4:13 AM IST 8:07 PM IST
Moon 12:14 PM IST (5/18) No Moon Set
Length of Visible Light 13h 58m
Length of Day
13h 10m
Waxing Crescent, 51% of the Moon is Illuminated
May 18
Waxing Crescent
May 25
Full
Jun 1
Last Quarter
Jun 8
New
Jun 16
First Quarter

Hourly Weather History & Observations

Time (IST) Temp. Heat Index Dew Point Humidity Pressure Visibility Wind Dir Wind Speed Gust Speed Precip Events Conditions
12:10 AM 87.8 °F - 44.6 °F 22% 29.65 in 3.1 mi Calm Calm - N/A   Haze
1:10 AM 87.8 °F - 44.6 °F 22% 29.62 in 3.1 mi Calm Calm - N/A   Haze
2:10 AM 89.6 °F - 44.6 °F 21% 29.62 in 3.1 mi Calm Calm - N/A   Haze
2:30 AM 82 °F - 60 °F 37% 29.57 in 2 mi WNW 3.5 mph - -   Haze
3:10 AM 86.0 °F - 44.6 °F 23% 29.62 in 3.1 mi NW 3.5 mph - N/A   Haze
4:10 AM 84.2 °F - 44.6 °F 25% 29.62 in 3.1 mi WNW 2.3 mph - N/A   Haze
5:10 AM 84.2 °F - 46.4 °F 27% 29.62 in 3.1 mi North 2.3 mph - N/A   Haze
5:30 AM 87 °F - 59 °F 29% 29.58 in 2 mi NW 5.8 mph - -   Haze
6:10 AM 86.0 °F - 44.6 °F 23% 29.65 in 3.1 mi WNW 4.6 mph - N/A   Haze
7:10 AM 86.0 °F - 48.2 °F 27% 29.62 in 3.1 mi SW 5.8 mph - N/A   Haze
7:40 AM 89.6 °F - 51.8 °F 27% 29.68 in 3.1 mi NW 2.3 mph - N/A   Haze
8:10 AM 93.2 °F 90.8 °F 53.6 °F 26% 29.71 in 3.1 mi NW 8.1 mph - N/A   Haze
8:30 AM 100 °F - 67 °F 25% 29.63 in 2 mi NNW 6.9 mph - -   Scattered Clouds
8:40 AM 96.8 °F 95.1 °F 55.4 °F 25% 29.71 in 3.7 mi NW 10.4 mph - N/A   Partly Cloudy
9:10 AM 98.6 °F 97.2 °F 55.4 °F 24% 29.71 in 3.7 mi NNW 9.2 mph - N/A   Partly Cloudy
9:40 AM 100.4 °F 98.8 °F 55.4 °F 22% 29.71 in 3.7 mi NNW 8.1 mph - N/A   Partly Cloudy
10:10 AM 104.0 °F - 50.0 °F 16% 29.71 in 3.7 mi NNW 8.1 mph - N/A   Partly Cloudy
10:40 AM 105.8 °F - 51.8 °F 17% 29.71 in 3.7 mi NNW 9.2 mph - N/A   Partly Cloudy
11:10 AM 109.4 °F - 50.0 °F 14% 29.68 in 3.7 mi NNE 6.9 mph - N/A   Unknown
11:30 AM 112 °F - 66 °F 15% 29.58 in 2 mi North 6.9 mph - -   Scattered Clouds
11:40 AM 109.4 °F - 48.2 °F 13% 29.68 in 3.7 mi North 5.8 mph - N/A   Partly Cloudy
12:10 PM 111.2 °F - 46.4 °F 12% 29.65 in 3.7 mi NE 4.6 mph - N/A   Partly Cloudy
12:40 PM 113.0 °F - 48.2 °F 12% 29.65 in 3.7 mi West 3.5 mph - N/A   Partly Cloudy
1:10 PM 113.0 °F - 46.4 °F 11% 29.62 in 3.7 mi East 4.6 mph - N/A   Partly Cloudy
2:10 PM 114.8 °F - 44.6 °F 10% 29.59 in 3.7 mi WNW 5.8 mph - N/A   Scattered Clouds
2:30 PM 114 °F - 65 °F 14% 29.48 in 2 mi North 5.8 mph - -   Partly Cloudy
3:10 PM 114.8 °F - 41.0 °F 8% 29.56 in 3.7 mi NNW 4.6 mph - N/A   Scattered Clouds
3:40 PM 113.0 °F - 44.6 °F 10% 29.56 in 3.7 mi NNE 3.5 mph - N/A   Scattered Clouds
4:10 PM 113.0 °F - 44.6 °F 10% 29.56 in 3.7 mi NW 10.4 mph - N/A   Scattered Clouds
4:40 PM 113.0 °F - 44.6 °F 10% 29.53 in 3.7 mi North 4.6 mph - N/A   Scattered Clouds
5:10 PM 113.0 °F - 44.6 °F 10% 29.56 in 3.7 mi NNW 4.6 mph - N/A   Scattered Clouds
5:30 PM 113 °F - 64 °F 14% 29.45 in 2 mi NNE 6.9 mph - -   Scattered Clouds
5:40 PM 111.2 °F - 44.6 °F 11% 29.56 in 3.7 mi North 4.6 mph - N/A   Scattered Clouds
6:10 PM 111.2 °F - 44.6 °F 11% 29.56 in 3.7 mi East 2.3 mph - N/A   Scattered Clouds
6:40 PM 107.6 °F - 44.6 °F 12% 29.56 in 3.7 mi NNW 4.6 mph - N/A   Scattered Clouds
7:10 PM 104.0 °F - 44.6 °F 13% 29.59 in 3.7 mi Calm Calm - N/A   Unknown
7:40 PM 100.4 °F - 44.6 °F 15% 29.59 in 3.7 mi Calm Calm - N/A   Partly Cloudy
8:10 PM 100.4 °F 98.4 °F 53.6 °F 21% 29.59 in 3.7 mi NE 3.5 mph - N/A   Partly Cloudy
8:30 PM 96 °F - 67 °F 30%  in 2 mi WSW 6.9 mph - -   Partly Cloudy
9:10 PM 100.4 °F - 46.4 °F 16% 29.62 in 3.7 mi NW 5.8 mph - N/A   Scattered Clouds
9:40 PM 98.6 °F - 46.4 °F 17% 29.62 in 3.7 mi NW 2.3 mph - N/A   Scattered Clouds
10:10 PM 96.8 °F - 46.4 °F 18% 29.62 in 3.7 mi Calm Calm - N/A   Scattered Clouds
10:40 PM 95.0 °F - 44.6 °F 18% 29.62 in 3.7 mi NNW 2.3 mph - N/A   Scattered Clouds
11:10 PM 93.2 °F - 44.6 °F 19% 29.62 in 3.7 mi NW 4.6 mph - N/A   Scattered Clouds
11:30 PM 91 °F - 61 °F 27% 29.57 in 2 mi NNW 2.3 mph - -   Partly Cloudy